星链-30415 (STARLINK-30415 )

导读

STARLINK-30415是美国太空探索技术公司SpaceX星链互联网卫星星座的一员,于2023年9月9日发射入轨。它属于星链组网的低轨卫星,承担着为全球提供高速低延迟互联网服务的任务,完善星链卫星星座的覆盖密度与通信能力,服务于全球移动通信、偏远区域互联网接入等场景。

Basic Information
目录编号:
57821
目录名称:
STARLINK-30415
国际标识:
2023-138P
轨道中心:
EARTH
卫星名称:
星链-30415
卫星全名:
星链-30415 (STARLINK-30415 )
卫星状态:
在轨 (已飞行1091 天)
发射日期:
2023-09-09 UTC
国别 :
美国 (US)
星等 :
--
Orbit Information
数据来源 国际轨道数据 AOE轨道数据
星历时间 2026-09-04T12:54:43+0800
7小时前
查看轨道信息
2026-09-03T08:00:00+0800
1天前
查看轨道信息
半长轴 6861.186km 6861.154km
偏心率 0.0001494 0.0000011
轨道倾角 43.005° 43.004°
近地点辐角 268.840° 271.057°
升交点赤经 306.557° 313.360°
平近点角 91.228° 296.493°
近地点 482.023km 483.009km
远地点 484.075km 483.025km
周期 94.267分钟 94.266分钟
每日圈数 15.275803 15.27591
Detailed Information
固有亮度:
5
最大亮度:
0.3
卫星平台:
Starlink v2.0 mini
覆盖范围:
全球
运营商:
太空探索技术公司
运营商所在国:
美国
制造商(研发单位):
太空探索技术公司
制造商所在国:
美国
使用方式:
暂无
Satellite Introduction
星链(Starlink)计划是由太空探索技术公司(SpaceX)提出的一个巨型低轨卫星互联网星座项目,计划在2019年至2024年间在太空搭建由约1.2万颗卫星组成的“星链”网络,其中1584颗将部署在地球上空550千米处的近地轨道,并从2020年开始工作。该卫星仍在工作。
2D Orbit Map
3D Orbit Map
Orbit Altitude Analysis Chart
Orbit Inclination Analysis Chart
Orbit Comprehensive Analysis Chart
View Comprehensive Chart
Conjunction Data List
Event ID Objects TCA Miss Dist (km) Collision Risk Probability Collision Risk Index (CRI) Action
CDM_260906-144005-782106-256821
2026-09-06T
14:40:43+0000
0.567 km
远距离
7.754918E-5 中风险 0.73
CDM_260906-023805-782106-762421
2026-09-06T
02:38:40+0000
0.684 km
远距离
5.897191E-5 中风险 0.7
CDM_260906-010405-782106-762421
2026-09-06T
01:04:31+0000
0.998 km
远距离
1.717038E-5 中风险 0.6
CDM_260906-161405-782106-256821
2026-09-06T
16:14:52+0000
1.099 km
极远距离
9.201538E-6 低风险 0.54
CDM_260906-041205-782106-762421
2026-09-06T
04:12:49+0000
2.232 km
极远距离
1.479771E-6 低风险 0.38
CDM_260906-130605-782106-256821
2026-09-06T
13:06:33+0000
2.199 km
极远距离
1.19227E-6 低风险 0.37
CDM_260905-233005-782106-762421
2026-09-05T
23:30:22+0000
2.505 km
极远距离
1.189417E-6 低风险 0.37
CDM_260906-174905-782106-256821
2026-09-06T
17:49:01+0000
2.795 km
极远距离
7.998712E-7 极低风险 0.33